Al Hoceima, Morocco

12:02 AM WET on December 18, 2017 (GMT +0000)
Al Hoceima

Weather History for GMTA - April, 2013

Change the Weather History Date:

Monday, April 1, 2013

  Actual Average Record
Temperature  
Mean Temperature 62 °F -  
Max Temperature 68 °F 65 °F 80 °F (2015)
Min Temperature 56 °F 52 °F 44 °F (2009)
Degree Days  
Heating Degree Days 3    
Growing Degree Days 12 (Base 50)    
Moisture  
Dew Point 55 °F    
Average Humidity 74    
Maximum Humidity 94    
Minimum Humidity 57    
Precipitation  
Precipitation 0.28 in - - ()
Sea Level Pressure  
Sea Level Pressure 29.88 in    
Wind  
Wind Speed 6 mph ()    
Max Wind Speed 14 mph    
Max Gust Speed -    
Visibility 5.5 miles    
Events Rain    
Averages and records for this station are not official NWS values.
T = Trace of Precipitation, MM = Missing Value Source: Averaged Metar Reports

Daily Weather History Graph

Daily Weather History Graph

Search for Another Location

Airport or City:

Trip Planner

Search our weather history database for the weather conditions in past years. The results will help you decide how hot, cold, wet, or windy it might be!

Date:

Astronomy

Apr. 01, 2013 Rise Set
Actual Time 6:02 AM WET 6:36 PM WET
Civil Twilight 5:36 AM WET 7:02 PM WET
Nautical Twilight 5:06 AM WET 7:32 PM WET
Astronomical Twilight 4:35 AM WET 8:03 PM WET
Moon No Moon Rise 9:44 AM WET (4/1)
Length of Visible Light 13h 25m
Length of Day
12h 34m
Waning Gibbous, 69% of the Moon is Illuminated
Apr 1
Waning Gibbous
Apr 3
Last Quarter
Apr 10
New
Apr 18
First Quarter
Apr 25
Full

Hourly Weather History & Observations

Time (WET) Temp. Dew Point Humidity Pressure Visibility Wind Dir Wind Speed Gust Speed Precip Events Conditions
6:00 AM 61 °F 55 °F 75% 29.81 in 5 mi NW 4.6 mph - -   Overcast
6:00 AM 60.8 °F 55.4 °F 82% 29.80 in 5.0 mi NW 4.6 mph - N/A Rain Light Rain
7:00 AM 60.8 °F 57.2 °F 88% 29.83 in 5.0 mi SSE 6.9 mph - N/A Rain Light Rain
8:00 AM 60.8 °F 57.2 °F 88% 29.83 in 3.7 mi SSE 6.9 mph - N/A Rain Light Rain
9:00 AM 62 °F 58 °F 84% 29.86 in 4 mi SE 2.3 mph - - Rain Light Rain
9:00 AM 60.8 °F 59.0 °F 94% 29.86 in 3.7 mi SE 2.3 mph - N/A   Mostly Cloudy
10:00 AM 60.8 °F 57.2 °F 88% 29.86 in 5.0 mi WNW 6.9 mph - N/A   Mostly Cloudy
11:00 AM 60.8 °F 55.4 °F 82% 29.89 in 3.7 mi WNW 6.9 mph - N/A Rain Light Rain
12:00 PM 62 °F 56 °F 73% 29.91 in 4 mi SE 4.6 mph - - Rain Light Rain
12:00 PM 60.8 °F 55.4 °F 82% 29.89 in 3.7 mi SE 4.6 mph - N/A   Mostly Cloudy
1:00 PM 64.4 °F 55.4 °F 73% 29.89 in 5.0 mi NW 4.6 mph - N/A   Mostly Cloudy
2:00 PM 64.4 °F 55.4 °F 73% 29.89 in 6.2 mi WNW 13.8 mph - N/A   Mostly Cloudy
3:00 PM 67 °F 55 °F 57% 29.89 in 6 mi WNW 13.8 mph - -   Scattered Clouds
3:00 PM 68.0 °F 55.4 °F 64% 29.89 in 6.2 mi WNW 13.8 mph - N/A   Partly Cloudy
4:00 PM 68.0 °F 55.4 °F 64% 29.86 in 6.2 mi NNW 11.5 mph - N/A   Partly Cloudy
5:00 PM 68.0 °F 55.4 °F 64% 29.89 in 6.2 mi WNW 9.2 mph - N/A   Partly Cloudy
6:00 PM 65 °F 53 °F 57% 29.91 in 9 mi WNW 11.5 mph - -   Scattered Clouds
6:00 PM 64.4 °F 53.6 °F 68% 29.89 in 6.2 mi WNW 11.5 mph - N/A   Partly Cloudy
7:00 PM 62.6 °F 51.8 °F 68% 29.92 in 6.2 mi WNW 9.2 mph - N/A   Partly Cloudy
8:00 PM 60.8 °F 50.0 °F 68% 29.92 in - SW 4.6 mph - N/A   Clear
9:00 PM 60 °F 51 °F 65% 29.96 in 9 mi SW 4.6 mph - -  
9:00 PM 60.8 °F 51.8 °F 72% 29.95 in - SW 4.6 mph - N/A   Clear